Location: ????????
(55.3939°N, 37.4780°E)
Time: 07:48:34
(UTC+00:00)

NOSS 2-1 (D) - Pass Details

Date: 14 April 2026
Orbit: 373 x 1667 km, 63.3° (Epoch: 13 May)

Event Time Altitude Azimuth Distance (km) Brightness Sun altitude
Rises 19:02:43 0° 305° (NW) 2,300 7.9 -18.1°
Reaches altitude 10° 19:04:39 10° 296° (WNW) 1,504 6.5 -18.2°
Maximum altitude 19:07:41 38° 227° (SW) 747 3.9 -18.5°
Enters shadow 19:08:20 34° 201° (SSW) 820 3.9 -18.6°
